Location: Kaarina
(60.4167°N, 22.4167°E)
Time: 23:47:53
(UTC+03:00)

Cosmos 2369 - Pass Details

Date: 24 August 2019
Orbit: 841 x 854 km, 71.0° (Epoch: 15 September)

Event Time Altitude Azimuth Distance (km) Brightness Sun altitude
Rises 21:48:36 0° 320° (NW) 3,411 8.7 -6.0°
Reaches altitude 10° 21:51:05 10° 317° (NW) 2,472 7.8 -6.3°
Maximum altitude 21:56:38 58° 240° (WSW) 982 4.2 -6.8°
Drops below altitude 10° 22:02:09 10° 162° (SSE) 2,461 5.6 -7.4°
Enters shadow 22:03:32 - 160° (SSE) 2,985 6.0 -7.5°
